Weather History for Warner Robins, GA

Change the Weather History Date:

Tuesday, March 19, 2013

  Actual Average Record
Temperature  
Mean Temperature 62 °F -  
Max Temperature 73 °F 68 °F 87 °F (2011)
Min Temperature 52 °F 44 °F 35 °F (2005)
Degree Days  
Heating Degree Days 2    
Growing Degree Days 12 (Base 50)    
Moisture  
Dew Point 48 °F    
Average Humidity 78    
Maximum Humidity 100    
Minimum Humidity 16    
Precipitation  
Precipitation 0.00 in - - ()
Sea Level Pressure  
Sea Level Pressure 29.96 in    
Wind  
Wind Speed 4 mph (NNW)    
Max Wind Speed 17 mph    
Max Gust Speed 22 mph    
Visibility 6 miles    
Events Fog , Rain    
Averages and records for this station are not official NWS values.
T = Trace of Precipitation, MM = Missing Value Source: NWS Daily Summary

Daily Weather History Graph

Daily Weather History Graph

Search for Another Location

Airport:

Trip Planner

Search our weather history database for the weather conditions in past years. The results will help you decide how hot, cold, wet, or windy it might be!

Date:

Astronomy

Mar. 19, 2013 Rise Set
Actual Time 7:39 AM EDT 7:45 PM EDT
Civil Twilight 7:14 AM EDT 8:09 PM EDT
Nautical Twilight 6:45 AM EDT 8:38 PM EDT
Astronomical Twilight 6:17 AM EDT 9:07 PM EDT
Moon 12:46 PM EDT (3/19) 2:13 AM EDT (3/19)
Length of Visible Light 12h 55m
Length of Day
12h 06m
Waxing Crescent, 49% of the Moon is Illuminated
Mar 19
Waxing Crescent
Mar 19
First Quarter
Mar 27
Full
Apr 3
Last Quarter
Apr 10
New

Hourly Weather History & Observations

Time (EDT) Temp. Dew Point Humidity Pressure Visibility Wind Dir Wind Speed Gust Speed Precip Events Conditions
12:58 AM 55.9 °F 54.9 °F 96% 29.90 in 10.0 mi SE 6.9 mph - N/A   Scattered Clouds
1:58 AM 55.4 °F 54.1 °F 96% 29.89 in 10.0 mi South 4.6 mph - N/A   Clear
2:40 AM 55.4 °F 53.6 °F 94% 29.88 in 8.0 mi NW 3.5 mph - N/A   Mostly Cloudy
2:45 AM 55.4 °F 53.6 °F 94% 29.87 in 4.0 mi Calm Calm - N/A   Mostly Cloudy
2:56 AM 55.4 °F 53.6 °F 94% 29.89 in 5.0 mi SW 2.3 mph - N/A   Scattered Clouds
2:58 AM 55.2 °F 54.3 °F 97% 29.90 in 5.0 mi SW 2.3 mph - N/A   Scattered Clouds
3:01 AM 55.4 °F 53.6 °F 94% 29.88 in 10.0 mi SSW 2.3 mph - N/A   Partly Cloudy
3:58 AM 55.0 °F 54.0 °F 96% 29.89 in 10.0 mi NNE 3.5 mph - N/A   Scattered Clouds
4:58 AM 55.4 °F 54.5 °F 97% 29.92 in 10.0 mi WNW 3.5 mph - N/A   Mostly Cloudy
5:54 AM 55.4 °F 53.6 °F 94% 29.91 in 8.0 mi North 2.3 mph - N/A   Clear
5:57 AM 55.4 °F 53.6 °F 94% 29.91 in 3.0 mi NNW 2.3 mph - N/A   Clear
5:58 AM 55.2 °F 54.3 °F 97% 29.91 in 3.0 mi NNW 2.3 mph - N/A   Clear
5:59 AM 55.4 °F 53.6 °F 94% 29.91 in 2.5 mi NNW 2.3 mph - N/A   Clear
6:00 AM 55.4 °F 53.6 °F 94% 29.91 in 2.0 mi NNW 3.5 mph - N/A   Clear
6:01 AM 55.4 °F 53.6 °F 94% 29.91 in 1.8 mi NNW 3.5 mph - N/A   Clear
6:02 AM 55.4 °F 53.6 °F 94% 29.92 in 1.5 mi NNW 2.3 mph - N/A   Clear
6:03 AM 55.4 °F 53.6 °F 94% 29.92 in 1.2 mi NNW 2.3 mph - N/A   Clear
6:04 AM 55.4 °F 53.6 °F 94% 29.92 in 1.0 mi NW 3.5 mph - N/A   Clear
6:06 AM 55.4 °F 53.6 °F 94% 29.92 in 0.8 mi NW 2.3 mph - N/A   Clear
6:07 AM 55.4 °F 53.6 °F 94% 29.92 in 0.8 mi NNW 1.2 mph - N/A   Clear
6:15 AM 55.4 °F 53.6 °F 94% 29.92 in 0.8 mi Calm Calm - N/A   Clear
6:16 AM 55.4 °F 53.6 °F 94% 29.92 in 1.0 mi Calm Calm - N/A   Clear
6:18 AM 55.4 °F 53.6 °F 94% 29.92 in 1.0 mi ENE 1.2 mph - N/A   Clear
6:19 AM 53.6 °F 53.6 °F 100% 29.92 in 0.5 mi East 1.2 mph - N/A Fog Fog
6:20 AM 53.6 °F 53.6 °F 100% 29.92 in 0.5 mi ENE 1.2 mph - N/A Fog Fog
6:31 AM 53.6 °F 53.6 °F 100% 29.93 in 0.5 mi North 1.2 mph - N/A Fog Fog
6:32 AM 53.6 °F 53.6 °F 100% 29.93 in 0.8 mi North 1.2 mph - N/A   Clear
6:33 AM 53.6 °F 53.6 °F 100% 29.93 in 0.8 mi Calm Calm - N/A   Clear
6:35 AM 53.6 °F 53.6 °F 100% 29.93 in 1.0 mi Calm Calm - N/A   Clear
6:36 AM 53.6 °F 53.6 °F 100% 29.93 in 1.2 mi Calm Calm - N/A   Clear
6:38 AM 53.6 °F 53.6 °F 100% 29.94 in 1.5 mi Calm Calm - N/A   Clear
6:39 AM 53.6 °F 53.6 °F 100% 29.94 in 1.8 mi Calm Calm - N/A   Clear
6:40 AM 53.6 °F 53.6 °F 100% 29.94 in 2.0 mi Calm Calm - N/A   Partly Cloudy
6:49 AM 53.6 °F 53.6 °F 100% 29.94 in 2.0 mi Calm Calm - N/A   Mostly Cloudy
6:50 AM 53.6 °F 53.6 °F 100% 29.94 in 1.8 mi Calm Calm - N/A   Mostly Cloudy
6:51 AM 53.6 °F 51.8 °F 94% 29.95 in 1.5 mi Calm Calm - N/A   Mostly Cloudy
6:58 AM 53.6 °F 52.7 °F 97% 29.96 in 1.5 mi Calm Calm - N/A   Mostly Cloudy
6:59 AM 53.6 °F 53.6 °F 100% 29.95 in 1.5 mi Calm Calm - N/A   Mostly Cloudy
7:01 AM 53.6 °F 53.6 °F 100% 29.95 in 1.8 mi Calm Calm - N/A   Mostly Cloudy
7:04 AM 53.6 °F 53.6 °F 100% 29.95 in 1.5 mi Calm Calm - N/A   Overcast
7:07 AM 53.6 °F 53.6 °F 100% 29.95 in 1.2 mi Calm Calm - N/A   Overcast
7:09 AM 53.6 °F 53.6 °F 100% 29.95 in 1.5 mi Calm Calm - N/A   Overcast
7:13 AM 53.6 °F 53.6 °F 100% 29.95 in 1.2 mi North 2.3 mph - N/A   Overcast
7:18 AM 53.6 °F 53.6 °F 100% 29.96 in 1.5 mi North 2.3 mph - N/A   Overcast
7:23 AM 53.6 °F 53.6 °F 100% 29.96 in 1.8 mi NNW 2.3 mph - N/A   Overcast
7:24 AM 53.6 °F 53.6 °F 100% 29.96 in 2.5 mi NNW 2.3 mph - N/A   Overcast
7:25 AM 53.6 °F 53.6 °F 100% 29.96 in 3.0 mi NNW 2.3 mph - N/A   Overcast
7:26 AM 53.6 °F 53.6 °F 100% 29.96 in 5.0 mi NNW 2.3 mph - N/A   Overcast
7:32 AM 53.6 °F 53.6 °F 100% 29.97 in 5.0 mi NNW 4.6 mph - N/A   Overcast
7:58 AM 54.7 °F 54.1 °F 98% 29.99 in 10.0 mi NNW 16.1 mph - N/A   Overcast
8:00 AM 53.6 °F 53.6 °F 100% 29.98 in 10.0 mi NNW 17.3 mph 21.9 mph N/A   Overcast
8:02 AM 53.6 °F 53.6 °F 100% 29.99 in 10.0 mi NNW 17.3 mph 21.9 mph N/A   Overcast
8:04 AM 53.6 °F 53.6 °F 100% 29.99 in 10.0 mi NNW 16.1 mph 21.9 mph N/A   Overcast
8:15 AM 53.6 °F 53.6 °F 100% 30.00 in 10.0 mi North 13.8 mph - N/A   Overcast
8:58 AM 52.9 °F 51.6 °F 95% 30.03 in 10.0 mi North 10.4 mph - N/A   Overcast
9:10 AM 53.6 °F 51.8 °F 94% 30.03 in 10.0 mi NNW 9.2 mph - N/A   Mostly Cloudy
9:13 AM 53.6 °F 51.8 °F 94% 30.03 in 10.0 mi North 11.5 mph - N/A   Scattered Clouds
9:58 AM 55.9 °F 51.1 °F 84% 30.04 in 10.0 mi NNW 11.5 mph - N/A   Scattered Clouds
10:58 AM 58.6 °F 47.8 °F 67% 30.05 in 10.0 mi North 9.2 mph - N/A   Clear
11:58 AM 62.4 °F 44.2 °F 51% 30.05 in 10.0 mi NW 6.9 mph - N/A   Clear
12:58 PM 65.8 °F 37.6 °F 35% 30.04 in 10.0 mi NW 8.1 mph - N/A   Clear
1:02 PM 66.2 °F 35.6 °F 32% 30.02 in 10.0 mi Variable 2.3 mph - N/A Rain Light Rain
1:14 PM 68.0 °F 35.6 °F 30% 30.02 in 10.0 mi NNW 10.4 mph - N/A   Clear
1:42 PM 68.0 °F 37.4 °F 33% 30.01 in 10.0 mi NNW 8.1 mph - N/A Rain Light Rain
1:43 PM 68.0 °F 37.4 °F 33% 30.02 in 10.0 mi North 8.1 mph - N/A   Clear
1:44 PM 68.0 °F 37.4 °F 33% 30.01 in 10.0 mi North 6.9 mph - N/A   Light Drizzle
1:54 PM 68.0 °F 35.6 °F 30% 30.01 in 10.0 mi NNW 9.2 mph - N/A   Clear
1:58 PM 68.9 °F 34.9 °F 29% 30.02 in 10.0 mi North 10.4 mph - 0.00 in   Clear
2:00 PM 69.8 °F 33.8 °F 27% 30.01 in 10.0 mi North 5.8 mph - N/A Rain Light Rain
2:12 PM 69.8 °F 33.8 °F 27% 30.01 in 10.0 mi NW 4.6 mph - N/A   Clear
2:16 PM 69.8 °F 35.6 °F 28% 30.00 in 10.0 mi NNW 6.9 mph - N/A Rain Light Rain
2:20 PM 69.8 °F 37.4 °F 31% 30.00 in 10.0 mi NW 5.8 mph - N/A   Clear
2:58 PM 71.6 °F 30.9 °F 22% 30.00 in 10.0 mi NW 12.7 mph - 0.00 in   Clear
3:58 PM 72.1 °F 28.2 °F 20% 29.99 in 10.0 mi NW 6.9 mph - N/A   Clear
4:58 PM 73.8 °F 27.7 °F 18% 29.99 in 10.0 mi NW 11.5 mph - N/A   Clear
5:58 PM 72.9 °F 23.5 °F 16% 30.00 in 10.0 mi North 12.7 mph 19.6 mph N/A   Clear
6:58 PM 69.3 °F 23.0 °F 17% 30.00 in 10.0 mi North 11.5 mph - N/A   Clear
7:58 PM 64.4 °F 23.5 °F 21% 30.02 in 10.0 mi North 12.7 mph - N/A   Clear
8:58 PM 62.2 °F 25.2 °F 24% 30.03 in 10.0 mi North 10.4 mph - N/A   Clear
9:58 PM 58.5 °F 26.8 °F 30% 30.06 in 10.0 mi North 5.8 mph - N/A   Clear
10:58 PM 54.7 °F 29.1 °F 38% 30.06 in 10.0 mi North 4.6 mph - N/A   Clear
11:58 PM 52.0 °F 32.7 °F 48% 30.06 in 10.0 mi Calm Calm - N/A   Clear